Location: Bauerbach
(50.4985°N, 10.3912°E)
Time: 16:55:06
(UTC+00:00)

Nadezhda 3 Rocket - Pass Details

Date: 13 January 2026
Orbit: 956 x 997 km, 82.9° (Epoch: 16 February)

Event Time Altitude Azimuth Distance (km) Brightness Sun altitude
Rises 05:04:37 0° 350° (N) 3,668 6.8 -19.9°
Reaches altitude 10° 05:07:07 10° 352° (N) 2,723 6.2 -19.5°
Maximum altitude 05:13:23 79° 80° (E) 999 4.1 -18.5°
Drops below altitude 10° 05:19:39 10° 167° (SSE) 2,733 6.7 -17.6°
Sets 05:22:10 0° 169° (SSE) 3,683 7.4 -17.2°
